Location: Asheville, NC
(35.6000°N, 82.5500°W)
Time: 06:29:51
(UTC-04:00)

PRISM - Visible Passes

Search period start: 22 July 2018 00:00
Search period end: 01 August 2018 00:00
Orbit: 568 x 588 km, 98.1° (Epoch: 16 July)

Date Brightness Start Highest point End Pass type
(mag) Time Alt. Az. Time Alt. Az. Time Alt. Az.
22 Jul ? 01:37:32 10° NNW 01:38:45 17° NNW 01:38:45 17° NNW visible
23 Jul ? 01:42:05 10° NNW 01:43:10 16° NNW 01:43:10 16° NNW visible
24 Jul ? 01:46:40 10° NNW 01:47:36 15° NNW 01:47:36 15° NNW visible
25 Jul ? 01:51:16 10° NNW 01:52:01 13° NNW 01:52:01 13° NNW visible
26 Jul ? 00:20:04 10° NE 00:20:09 10° NE 00:20:09 10° NE visible
26 Jul ? 01:55:53 10° NNW 01:56:27 12° NNW 01:56:27 12° NNW visible
27 Jul ? 00:24:24 10° NNE 00:24:34 11° NE 00:24:34 11° NE visible
27 Jul ? 02:00:32 10° NNW 02:00:52 11° NNW 02:00:52 11° NNW visible
28 Jul ? 00:28:46 10° NNE 00:28:59 11° NNE 00:28:59 11° NNE visible
28 Jul ? 02:05:14 10° NNW 02:05:17 10° NW 02:05:17 10° NW visible
29 Jul ? 00:33:08 10° NNE 00:33:24 12° NNE 00:33:24 12° NNE visible
30 Jul ? 00:37:31 10° NNE 00:37:49 12° NNE 00:37:49 12° NNE visible
31 Jul ? 00:41:54 10° NNE 00:42:14 12° NNE 00:42:14 12° NNE visible
